Weather History for Roxboro, NC

Change the Weather History Date:

Tuesday, September 10, 2013

  Actual Average Record
Temperature  
Mean Temperature 74 °F -  
Max Temperature 87 °F 82 °F 96 °F (2007)
Min Temperature 62 °F 59 °F 33 °F (2006)
Cooling Degree Days 10    
Growing Degree Days 24 (Base 50)    
Moisture  
Dew Point 67 °F    
Average Humidity 83    
Maximum Humidity 100    
Minimum Humidity 46    
Precipitation  
Precipitation 0.00 in - - ()
Sea Level Pressure  
Sea Level Pressure 30.22 in    
Wind  
Wind Speed 1 mph (SW)    
Max Wind Speed 7 mph    
Max Gust Speed -    
Visibility 6 miles    
Events Fog    
Averages and records for this station are not official NWS values.
T = Trace of Precipitation, MM = Missing Value Source: NWS Daily Summary

Daily Weather History Graph

Daily Weather History Graph

Search for Another Location

Airport:

Trip Planner

Search our weather history database for the weather conditions in past years. The results will help you decide how hot, cold, wet, or windy it might be!

Date:

Astronomy

Sep. 10, 2013 Rise Set
Actual Time 6:54 AM EDT 7:30 PM EDT
Civil Twilight 6:28 AM EDT 7:56 PM EDT
Nautical Twilight 5:58 AM EDT 8:26 PM EDT
Astronomical Twilight 5:26 AM EDT 8:57 PM EDT
Moon 12:07 PM EDT (9/10) 10:42 PM EDT (9/10)
Length of Visible Light 13h 27m
Length of Day
12h 35m
Waxing Crescent, 28% of the Moon is Illuminated
Sep 10
Waxing Crescent
Sep 12
First Quarter
Sep 19
Full
Sep 26
Last Quarter
Oct 4
New

Hourly Weather History & Observations

Time (EDT) Temp. Heat Index Dew Point Humidity Pressure Visibility Wind Dir Wind Speed Gust Speed Precip Events Conditions
12:15 AM 66.2 °F - 66.2 °F 100% 30.19 in 3.0 mi Calm Calm - N/A   Clear
12:35 AM 64.4 °F - 64.4 °F 100% 30.19 in 1.2 mi Calm Calm - N/A   Mist
12:55 AM 64.4 °F - 64.4 °F 100% 30.19 in 1.0 mi Calm Calm - N/A   Mist
1:15 AM 66.2 °F - 66.2 °F 100% 30.19 in 0.8 mi Calm Calm - N/A   Mist
1:35 AM 64.4 °F - 64.4 °F 100% 30.20 in 1.0 mi Calm Calm - N/A   Mist
1:55 AM 64.4 °F - 64.4 °F 100% 30.20 in 10.0 mi Calm Calm - N/A   Clear
2:15 AM 64.4 °F - 64.4 °F 100% 30.20 in 5.0 mi Calm Calm - N/A   Clear
2:35 AM 64.4 °F - 64.4 °F 100% 30.20 in 2.5 mi Calm Calm - N/A   Clear
2:55 AM 64.4 °F - 64.4 °F 100% 30.20 in 1.8 mi Calm Calm - N/A   Mist
3:15 AM 64.4 °F - 64.4 °F 100% 30.20 in 1.0 mi Calm Calm - N/A   Mist
3:35 AM 64.4 °F - 64.4 °F 100% 30.20 in 4.0 mi Calm Calm - N/A   Scattered Clouds
3:55 AM 64.4 °F - 64.4 °F 100% 30.21 in 1.0 mi Calm Calm - N/A   Mist
4:15 AM 64.4 °F - 64.4 °F 100% 30.21 in 0.2 mi Calm Calm - N/A Fog Fog
4:35 AM 64.4 °F - 64.4 °F 100% 30.21 in 7.0 mi Calm Calm - N/A   Scattered Clouds
4:55 AM 64.4 °F - 64.4 °F 100% 30.22 in 1.0 mi Calm Calm - N/A   Mostly Cloudy
5:15 AM 64.4 °F - 64.4 °F 100% 30.22 in 0.5 mi Calm Calm - N/A Fog Fog
5:35 AM 64.4 °F - 64.4 °F 100% 30.22 in 0.5 mi Calm Calm - N/A Fog Fog
5:55 AM 64.4 °F - 64.4 °F 100% 30.22 in 0.2 mi Calm Calm - N/A Fog Fog
6:15 AM 62.6 °F - 62.6 °F 100% 30.23 in 0.2 mi Calm Calm - N/A Fog Fog
6:35 AM 62.6 °F - 62.6 °F 100% 30.24 in 0.8 mi Calm Calm - N/A   Overcast
6:55 AM 62.6 °F - 62.6 °F 100% 30.24 in 5.0 mi Calm Calm - N/A   Mostly Cloudy
7:15 AM 62.6 °F - 62.6 °F 100% 30.24 in 2.0 mi Calm Calm - N/A   Scattered Clouds
7:35 AM 64.4 °F - 64.4 °F 100% 30.25 in 1.0 mi Calm Calm - N/A   Mist
7:55 AM 64.4 °F - 64.4 °F 100% 30.25 in 2.5 mi Calm Calm - N/A   Clear
8:15 AM 68.0 °F - 68.0 °F 100% 30.25 in 5.0 mi Calm Calm - N/A   Clear
8:35 AM 69.8 °F - 69.8 °F 100% 30.25 in 7.0 mi SW 4.6 mph - N/A   Clear
8:55 AM 69.8 °F - 69.8 °F 100% 30.25 in 7.0 mi SW 3.5 mph - N/A   Clear
9:15 AM 71.6 °F - 71.6 °F 100% 30.26 in 10.0 mi SW 3.5 mph - N/A   Clear
9:35 AM 73.4 °F - 71.6 °F 94% 30.26 in 10.0 mi Calm Calm - N/A   Clear
9:55 AM 77.0 °F - 71.6 °F 83% 30.27 in 10.0 mi WSW 3.5 mph - N/A   Clear
10:15 AM 78.8 °F - 71.6 °F 78% 30.27 in 10.0 mi West 4.6 mph - N/A   Clear
10:35 AM 78.8 °F - 69.8 °F 74% 30.27 in 10.0 mi SW 5.8 mph - N/A   Clear
10:55 AM 80.6 °F 83.2 °F 68.0 °F 65% 30.27 in 10.0 mi West 3.5 mph - N/A   Clear
11:15 AM 80.6 °F 83.2 °F 68.0 °F 65% 30.27 in 10.0 mi WSW 4.6 mph - N/A   Clear
11:35 AM 82.4 °F 85.4 °F 68.0 °F 62% 30.27 in 10.0 mi West 5.8 mph - N/A   Clear
11:55 AM 82.4 °F 85.4 °F 68.0 °F 62% 30.26 in 10.0 mi SSW 6.9 mph - N/A   Clear
12:15 PM 82.4 °F 85.4 °F 68.0 °F 62% 30.27 in 10.0 mi West 3.5 mph - N/A   Scattered Clouds
12:35 PM 82.4 °F 86.3 °F 69.8 °F 66% 30.26 in 10.0 mi Calm Calm - N/A   Mostly Cloudy
12:55 PM 84.2 °F 88.4 °F 69.8 °F 62% 30.26 in 10.0 mi West 3.5 mph - N/A   Mostly Cloudy
1:15 PM 84.2 °F 87.3 °F 68.0 °F 58% 30.25 in 10.0 mi SW 5.8 mph - N/A   Scattered Clouds
1:35 PM 84.2 °F 87.3 °F 68.0 °F 58% 30.25 in 10.0 mi SW 6.9 mph - N/A   Clear
1:55 PM 84.2 °F 86.6 °F 66.2 °F 55% 30.25 in 10.0 mi WSW 5.8 mph - N/A   Scattered Clouds
2:15 PM 86.0 °F 88.2 °F 66.2 °F 51% 30.24 in 10.0 mi SSW 4.6 mph - N/A   Clear
2:35 PM 86.0 °F 88.2 °F 66.2 °F 51% 30.23 in 10.0 mi SW 5.8 mph - N/A   Clear
2:55 PM 86.0 °F 89.4 °F 68.0 °F 55% 30.22 in 10.0 mi SW 6.9 mph - N/A   Clear
3:15 PM 86.0 °F 88.2 °F 66.2 °F 51% 30.22 in 10.0 mi SW 6.9 mph - N/A   Clear
3:35 PM 86.0 °F 88.2 °F 66.2 °F 51% 30.21 in 10.0 mi SW 5.8 mph - N/A   Clear
3:55 PM 86.0 °F 88.2 °F 66.2 °F 51% 30.20 in 10.0 mi SSW 6.9 mph - N/A   Clear
4:15 PM 87.8 °F 89.4 °F 64.4 °F 46% 30.20 in 10.0 mi SW 6.9 mph - N/A   Clear
4:35 PM 86.0 °F 88.2 °F 66.2 °F 51% 30.19 in 10.0 mi West 3.5 mph - N/A   Clear
4:55 PM 86.0 °F 87.3 °F 64.4 °F 48% 30.19 in 10.0 mi SW 3.5 mph - N/A   Clear
5:15 PM 86.0 °F 88.2 °F 66.2 °F 51% 30.19 in 10.0 mi SW 3.5 mph - N/A   Clear
5:35 PM 86.0 °F 87.3 °F 64.4 °F 48% 30.19 in 10.0 mi SSW 4.6 mph - N/A   Clear
5:55 PM 86.0 °F 89.4 °F 68.0 °F 55% 30.19 in 10.0 mi SSW 4.6 mph - N/A   Clear
6:15 PM 86.0 °F 89.4 °F 68.0 °F 55% 30.19 in 10.0 mi SSW 4.6 mph - N/A   Clear
6:35 PM 82.4 °F 86.3 °F 69.8 °F 66% 30.18 in 10.0 mi Calm Calm - N/A   Clear
6:55 PM 80.6 °F 84.6 °F 71.6 °F 74% 30.18 in 10.0 mi Calm Calm - N/A   Clear
7:15 PM 77.0 °F - 71.6 °F 83% 30.18 in 10.0 mi Calm Calm - N/A   Clear
7:35 PM 77.0 °F - 71.6 °F 83% 30.19 in 10.0 mi Calm Calm - N/A   Clear
7:55 PM 73.4 °F - 69.8 °F 88% 30.19 in 10.0 mi Calm Calm - N/A   Clear
8:15 PM 73.4 °F - 69.8 °F 88% 30.19 in 10.0 mi Calm Calm - N/A   Clear
8:35 PM 71.6 °F - 71.6 °F 100% 30.21 in 10.0 mi Calm Calm - N/A   Clear
8:55 PM 71.6 °F - 71.6 °F 100% 30.22 in 7.0 mi Calm Calm - N/A   Clear
9:15 PM 71.6 °F - 71.6 °F 100% 30.23 in 7.0 mi Calm Calm - N/A   Clear
9:35 PM 71.6 °F - 71.6 °F 100% 30.23 in 5.0 mi Calm Calm - N/A   Clear
9:55 PM 69.8 °F - 69.8 °F 100% 30.24 in 10.0 mi Calm Calm - N/A   Clear
10:15 PM 69.8 °F - 69.8 °F 100% 30.24 in 4.0 mi Calm Calm - N/A   Scattered Clouds
10:35 PM 69.8 °F - 69.8 °F 100% 30.25 in 4.0 mi Calm Calm - N/A   Scattered Clouds
10:55 PM 68.0 °F - 68.0 °F 100% 30.25 in 5.0 mi Calm Calm - N/A   Clear
11:15 PM 68.0 °F - 68.0 °F 100% 30.25 in 2.0 mi Calm Calm - N/A   Clear
11:35 PM 68.0 °F - 68.0 °F 100% 30.24 in 1.5 mi Calm Calm - N/A   Scattered Clouds
11:55 PM 68.0 °F - 68.0 °F 100% 30.24 in 2.0 mi Calm Calm - N/A   Clear